Regional Weather Roundup
Issued by NWS State College, PA

Home | Current Version | Previous Version | Graphics & Text | Print | Product List | Glossary On
Versions: 1 2 3 4 5 6 7 8 9 10 11 12 13 14 15 16 17 18 19 20 21 22 23 24 25 26 27 28 29 30 31 32 33 34 35 36 37 38 39 40 41 42 43 44 45 46 47 48 49 50
000
ASUS41 KCTP 280110
RWRCTP

REGIONAL WEATHER ROUNDUP
NATIONAL WEATHER SERVICE STATE COLLEGE PA
900 PM EDT MON APR 27 2015

Note: "fair" indicates few or no clouds below 12,000 feet with no
significant weather and/or obstructions to visibility.

* = STATION THAT DOES NOT REPORT PRECIPITATION /E.G. RAIN...SNOW...ETC/
    THUNDER OR FOG.

PAZ002>004-007>009-013>016-020>023-029>032-280200-
WESTERN PENNSYLVANIA

CITY           SKY/WX    TMP DP  RH WIND       PRES   REMARKS
ERIE           CLOUDY    42  37  82 SW5       30.00R
MEADVILLE      CLOUDY    40  35  83 W6        29.99R
FRANKLIN*      CLOUDY    39  34  81 NW10      30.00R
NEW CASTLE     CLOUDY    42  37  82 N9        30.02R
BEAVER COUNTY  CLOUDY    43  34  70 W3        30.00R
BUTLER*        CLOUDY    43  34  70 NW6       30.01R
PITTSBURGH INT CLOUDY    43  33  68 NW9       29.99R
PITTSBURGH     CLOUDY    42  31  64 N9        29.97S
INDIANA*       CLOUDY    41  37  87 NW5       29.99R
LATROBE        CLOUDY    41  36  81 NW12      29.99R
WASHINGTON CO* CLOUDY    43  30  61 NW5       30.01R
$$

PAZ004>006-010>012-017>019-024>028-033>037-041-042-045-046-049>053-280200-
CENTRAL PENNSYLVANIA

CITY           SKY/WX    TMP DP  RH WIND       PRES   REMARKS
BRADFORD       CLOUDY    39  34  82 NW9       29.92R
DUBOIS         CLOUDY    43  32  65 N9        29.93R
CLEARFIELD     CLOUDY    42  34  73 NW8       29.92R
JOHNSTOWN      LGT RAIN  38  34  85 NW14G22   29.91R
ALTOONA        CLOUDY    44  34  67 NW14      29.90R
STATE COLLEGE  MOCLDY    43  36  75 N10       29.89R
WILLIAMSPORT   CLOUDY    49  33  54 W10       29.86R
SELINSGROVE    MOCLDY    49  33  54 N9        29.87R
FT INDIANTOWN  PTCLDY    52  33  49 VRB5G18   29.83R
CAPITAL CITY   CLOUDY    50  40  68 NW9       29.85R
HARRISBURG     MOCLDY    52  37  56 NW18      29.83R
YORK           PTCLDY    48  37  65 NW8       29.84R
$$

PAZ038>040-043-044-047-048-054-055-060>062-067>071-280200-
EASTERN PENNSYLVANIA

CITY           SKY/WX    TMP DP  RH WIND       PRES   REMARKS
SCRANTON       CLOUDY    48  33  56 NW8       29.81R
MOUNT POCONO   CLOUDY    43  31  62 NW14G23   29.76R
ALLENTOWN      CLOUDY    51  32  48 N16G23    29.80R
QUAKERTOWN*    MOCLDY    50  34  53 N10G21    29.79R
READING        PTCLDY    50  33  52 NW10      29.80R
LANCASTER      PTCLDY    50  33  52 NW12      29.80R
COATESVILLE    PTCLDY    50  32  50 NW10      29.79R
POTTSTOWN      MOCLDY    51  32  48 NW13G18   29.79R
BLUE BELL      PTCLDY    54  34  47 NW6       29.76R
DOYLESTOWN     MOCLDY    50  32  50 N12G23    29.76R
WILLOW GROVE   NOT AVBL
NORTH PHILA    PTCLDY    55  30  38 NW15      29.77R
PHILADELPHIA   MOCLDY    57  30  35 NW14      29.77R
$$



USA.gov is the U.S. government's official web portal to all federal, state and local government web resources and services.